Погода в Усть-Цильме

Россия / Республика Коми     65°26′26″N   52°09′16″E
темп.,
°C
ветер,
м/с
пор.,
м/с
влажн.,
%
обл.,
%
осадки,
мм/ч
давл.,
гПа
погр.,
м
28 февраля, вс
вс2800:00−17ю389598 0.1 1011339
03:00−16ю379699 0.4 1011363
06:00−16ю3696100 0.5 1011332
09:00−15ююз369498 0.8 1011343
12:00−13ююз3592100 0.1 1012447
15:00−12ююз2594100 0.1 1012404
18:00−14ююз259794 0.1 1012124
21:00−14ююз259693 0.3 1013170
1 марта, пн
пн100:00−14ююз369690 0.2 1012186
03:00−13ююз389591 0.4 1011269
06:00−13ю41194100 0.1 1007357
09:00−9ююз51292100 0.3 1005531
12:00−8ю61393100 0.6 1000611
15:00−7ююз61395100 2.4 997711
18:00−6ююз51195100 1.8 994637
21:00−5ююз4996100 2.8 993502
2 марта, вт
вт200:00−5ю3796100 1.2 992326
03:00−6ю3696100 2.4 991251
06:00−7ююв239799 0.4 99180
09:00−6ююв239797 0.7 992146
12:00−3ю129699 0.2 992239
15:00−2зюз249799 0.5 993358
18:00−5зсз3797100 0.4 994346
21:00−6зсз3896100 1.1 995369
3 марта, ср
ср300:00−10зсз389593 0.1 996235
03:00−14зюз259761 0.2 997102
06:00−14зюз289783 0.1 996205
09:00−10зсз379491 0.3 997655
12:00−8зсз3894100 0.6 997713
15:00−7зсз4893100 1.2 998910
18:00−8зсз3995100 0.8 998592
21:00−9зсз41092100 1.2 999553
4 марта, чт
чт400:00−11з399498 0.1 999351
03:00−14з279797 0.1 999197
06:00−17зюз229986 0.0 99820
09:00−13ююз249691 0.2 997189
12:00−9ю369495 0.0 995333
15:00−7ююв498995 0.1 993678
18:00−8ююв51293100 0.2 990683
21:00−8юв41094100 1.0 987739